Location: Mahannah Oil Field
(37.4664°N, 96.6003°W)
Time: 09:37:53
(UTC+00:00)

Courier 1B - Pass Details

Date: 28 January 2021
Orbit: 962 x 1209 km, 28.3° (Epoch: 02 March)

Event Time Altitude Azimuth Distance (km) Brightness Sun altitude
Rises 10:03:17 0° 257° (WSW) 3,644 - -41.6°
Reaches altitude 10° 10:08:18 10° 223° (SW) 2,682 - -40.6°
Maximum altitude 10:10:01 11° 208° (SSW) 2,602 - -40.3°
Drops below altitude 10° 10:11:44 10° 192° (SSW) 2,684 - -39.9°
Exits shadow 10:15:50 - 163° (SSE) 3,415 10.4 -39.1°
Sets 10:16:47 0° 159° (SSE) 3,652 10.7 -38.9°
